EW7070 Weather Reports


Display with metric or nautical units.
time (UTC)temp
F
wind
direction
speed
MPH
gust
MPH
rain 1hr
in
rain 24hr
in
rain mn
in
humidity
%
barometer
mb
20260906214441 50 105 2.0 7.0 0.00 0.00 0.00 75 1026.1
20260906213937 50 97 1.0 7.0 0.00 0.00 0.00 75 1026.1
20260906213419 51 276 0.0 1.0 0.00 0.00 0.00 71 1026.0
20260906212851 52 276 0.0 0.0 0.00 0.00 0.00 68 1025.8
20260906212350 52 276 0.0 1.0 0.00 0.00 0.00 67 1025.7
20260906211838 53 276 0.0 1.0 0.00 0.00 0.00 66 1025.7
20260906211337 53 276 1.0 2.0 0.00 0.00 0.00 63 1025.7
20260906210817 53 276 1.0 2.0 0.00 0.00 0.00 60 1025.7
20260906210314 54 276 1.0 2.0 0.00 0.00 0.00 59 1025.7
20260906205815 55 276 0.0 2.0 0.00 0.00 0.00 57 1025.5
20260906205314 55 276 0.0 2.0 0.00 0.00 0.00 58 1025.4
20260906204801 55 276 1.0 2.0 0.00 0.00 0.00 56 1025.4
20260906204534 55 224 1.0 2.0 0.00 0.00 0.00 55 1025.4
20260906203735 55 270 1.0 3.0 0.00 0.00 0.00 54 1025.4
20260906203502 55 245 1.0 2.0 0.00 0.00 0.00 54 1025.3
20260906202727 55 262 1.0 5.0 0.00 0.00 0.00 54 1025.3
20260906202225 56 261 1.0 4.0 0.00 0.00 0.00 51 1025.3
20260906202216 56 233 1.0 5.0 0.00 0.00 0.00 51 1025.3
20260906201209 56 211 1.0 5.0 0.00 0.00 0.00 52 1025.3
20260906200708 56 136 1.0 3.0 0.00 0.00 0.00 52 1025.1
20260906200206 56 139 2.0 0.0 0.00 0.00 0.00 51 1025.1
20260906195820 57 141 3.0 8.0 0.00 0.00 0.00 48 1025.1
20260906195316 57 172 3.0 9.0 0.00 0.00 0.00 49 1025.0
20260906194812 57 135 3.0 9.0 0.00 0.00 0.00 49 1024.9
20260906194313 57 138 2.0 7.0 0.00 0.00 0.00 48 1024.9
20260906193811 57 105 3.0 12.0 0.00 0.00 0.00 49 1024.8
20260906193313 57 229 4.0 12.0 0.00 0.00 0.00 49 1024.7
20260906192809 57 277 3.0 7.0 0.00 0.00 0.00 51 1024.7
20260906192306 56 257 2.0 5.0 0.00 0.00 0.00 50 1024.8
20260906191756 56 244 1.0 5.0 0.00 0.00 0.00 50 1024.7
20260906191233 56 257 1.0 4.0 0.00 0.00 0.00 53 1024.8
20260906190731 56 237 2.0 4.0 0.00 0.00 0.00 54 1024.9
20260906190229 56 140 2.0 5.0 0.00 0.00 0.00 51 1024.8
20260906185706 56 222 2.0 9.0 0.00 0.00 0.00 51 1024.7
20260906185133 57 242 3.0 9.0 0.00 0.00 0.00 51 1024.7
20260906184631 57 187 3.0 10.0 0.00 0.00 0.00 50 1024.7
20260906184132 57 205 3.0 10.0 0.00 0.00 0.00 51 1024.6
20260906183857 58 233 3.0 8.0 0.00 0.00 0.00 49 1024.6
20260906183121 58 228 3.0 9.0 0.00 0.00 0.00 51 1024.6
20260906182617 58 268 3.0 9.0 0.00 0.00 0.00 52 1024.6
20260906182050 58 262 4.0 8.0 0.00 0.00 0.00 52 1024.6
20260906181521 57 220 3.0 8.0 0.00 0.00 0.00 53 1024.6
20260906181016 56 262 3.0 7.0 0.00 0.00 0.00 56 1024.6
20260906180514 56 255 3.0 8.0 0.00 0.00 0.00 53 1024.7
20260906175949 56 237 4.0 9.0 0.00 0.00 0.00 55 1024.8
20260906175419 56 221 5.0 10.0 0.00 0.00 0.00 55 1024.8
20260906174918 56 263 4.0 10.0 0.00 0.00 0.00 55 1024.8
20260906174413 57 253 4.0 10.0 0.00 0.00 0.00 55 1024.9
20260906174408 57 252 5.0 11.0 0.00 0.00 0.00 51 1024.9
20260906173339 57 258 6.0 11.0 0.00 0.00 0.00 52 1024.9
20260906172836 57 293 5.0 10.0 0.00 0.00 0.00 53 1025.0
20260906172331 57 252 3.0 6.0 0.00 0.00 0.00 54 1024.9
20260906171811 57 264 3.0 9.0 0.00 0.00 0.00 57 1025.1
20260906171248 57 249 3.0 9.0 0.00 0.00 0.00 54 1025.0
20260906170746 58 120 3.0 11.0 0.00 0.00 0.00 54 1025.1
20260906170222 58 147 3.0 11.0 0.00 0.00 0.00 51 1025.1
20260906165926 59 249 3.0 10.0 0.00 0.00 0.00 51 1025.1
20260906165404 59 177 4.0 10.0 0.00 0.00 0.00 57 1025.1
20260906164609 58 19 3.0 9.0 0.00 0.00 0.00 53 1025.2
20260906164107 58 247 3.0 9.0 0.00 0.00 0.00 54 1025.3
20260906163604 58 214 4.0 9.0 0.00 0.00 0.00 54 1025.3
20260906163337 58 226 4.0 10.0 0.00 0.00 0.00 57 1025.5
20260906162547 57 274 4.0 10.0 0.00 0.00 0.00 55 1025.6
20260906162048 57 143 3.0 8.0 0.00 0.00 0.00 51 1025.6
20260906161518 57 82 2.0 10.0 0.00 0.00 0.00 54 1025.7
20260906161015 57 310 3.0 10.0 0.00 0.00 0.00 53 1025.8
20260906160511 56 276 5.0 13.0 0.00 0.00 0.00 54 1025.9
20260906160012 57 204 4.0 13.0 0.00 0.00 0.00 55 1025.9
20260906155446 57 245 3.0 9.0 0.00 0.00 0.00 60 1026.1
20260906155216 56 281 4.0 11.0 0.00 0.00 0.00 55 1026.2
20260906155058 56 235 4.0 11.0 0.00 0.00 0.00 58 1026.3
20260906153933 56 260 3.0 11.0 0.00 0.00 0.00 59 1026.3
20260906153408 56 177 4.0 11.0 0.00 0.00 0.00 58 1026.4
20260906152909 55 198 5.0 10.0 0.00 0.00 0.00 59 1026.5
20260906152340 55 249 5.0 12.0 0.00 0.00 0.00 58 1026.5
20260906151816 55 256 4.0 9.0 0.00 0.00 0.00 63 1026.5
20260906151315 55 145 4.0 9.0 0.00 0.00 0.00 63 1026.7
20260906150747 54 182 4.0 9.0 0.00 0.00 0.00 65 1026.7
20260906150226 55 191 3.0 8.0 0.00 0.00 0.00 64 1026.7
20260906145952 55 112 4.0 8.0 0.00 0.00 0.00 63 1026.7
20260906145157 55 276 4.0 10.0 0.00 0.00 0.00 67 1026.7
20260906144634 55 187 4.0 10.0 0.00 0.00 0.00 68 1026.7
20260906144627 55 288 4.0 10.0 0.00 0.00 0.00 66 1026.8
20260906143558 54 182 3.0 8.0 0.00 0.00 0.00 65 1026.8
20260906143057 55 264 3.0 7.0 0.00 0.00 0.00 67 1026.8
20260906142542 55 182 3.0 7.0 0.00 0.00 0.00 65 1026.8
20260906142041 54 280 3.0 8.0 0.00 0.00 0.00 66 1026.7
20260906141539 54 275 3.0 8.0 0.00 0.00 0.00 70 1026.8
20260906141032 53 208 4.0 8.0 0.00 0.00 0.00 67 1026.8
20260906140759 53 106 5.0 9.0 0.00 0.00 0.00 66 1026.9
20260906140004 53 254 4.0 10.0 0.00 0.00 0.00 71 1026.8
20260906135458 53 286 3.0 7.0 0.00 0.00 0.00 71 1026.9
20260906134955 53 182 2.0 7.0 0.00 0.00 0.00 71 1026.8
20260906134431 52 201 4.0 8.0 0.00 0.00 0.00 70 1026.9
20260906133921 52 267 4.0 11.0 0.00 0.00 0.00 69 1026.8
20260906133404 53 177 3.0 8.0 0.00 0.00 0.00 69 1026.9
20260906132903 53 182 2.0 5.0 0.00 0.00 0.00 70 1026.9
20260906132404 53 159 3.0 10.0 0.00 0.00 0.00 71 1026.9
20260906131836 53 182 3.0 10.0 0.00 0.00 0.00 68 1026.8
20260906131539 53 208 3.0 6.0 0.00 0.00 0.00 70 1026.9
20260906130803 53 287 2.0 6.0 0.00 0.00 0.00 73 1026.8
20260906130508 52 195 2.0 8.0 0.00 0.00 0.00 73 1026.8
20260906125734 52 200 2.0 8.0 0.00 0.00 0.00 72 1026.8
20260906125222 51 142 2.0 5.0 0.00 0.00 0.00 73 1026.8
20260906124721 51 218 3.0 8.0 0.00 0.00 0.00 74 1026.8
20260906124219 51 275 3.0 8.0 0.00 0.00 0.00 73 1026.9
20260906123651 51 236 3.0 7.0 0.00 0.00 0.00 75 1026.8
20260906123142 51 149 3.0 8.0 0.00 0.00 0.00 76 1026.9
20260906122847 51 219 4.0 8.0 0.00 0.00 0.00 74 1026.8
20260906122048 50 232 3.0 8.0 0.00 0.00 0.00 77 1027.0
20260906121548 50 118 2.0 6.0 0.00 0.00 0.00 77 1026.8
20260906121241 49 145 2.0 7.0 0.00 0.00 0.00 79 1026.8
20260906120508 49 249 3.0 7.0 0.00 0.00 0.00 76 1026.9
20260906115939 49 262 3.0 7.0 0.00 0.00 0.00 77 1026.6
20260906115412 49 208 3.0 7.0 0.00 0.00 0.00 77 1026.7
20260906114844 49 206 2.0 6.0 0.00 0.00 0.00 77 1026.5
20260906114336 49 216 3.0 8.0 0.00 0.00 0.00 78 1026.5
20260906113833 48 251 4.0 8.0 0.00 0.00 0.00 80 1026.5
20260906113602 48 305 4.0 8.0 0.00 0.00 0.00 78 1026.4
20260906113036 48 266 4.0 8.0 0.00 0.00 0.00 78 1026.6
20260906112236 48 272 4.0 8.0 0.00 0.00 0.00 79 1026.6
20260906111724 48 272 4.0 8.0 0.00 0.00 0.00 79 1026.7
20260906111225 48 269 3.0 6.0 0.00 0.00 0.00 79 1026.7
20260906110718 47 280 2.0 7.0 0.00 0.00 0.00 81 1026.8
20260906110215 47 255 1.0 7.0 0.00 0.00 0.00 81 1026.7
20260906105926 46 211 1.0 3.0 0.00 0.00 0.00 85 1026.7
20260906105155 45 209 0.0 3.0 0.00 0.00 0.00 87 1026.8
20260906104655 44 88 0.0 1.0 0.00 0.00 0.00 92 1026.7
20260906104152 44 88 0.0 2.0 0.00 0.00 0.00 94 1026.7
20260906103649 43 88 0.0 2.0 0.00 0.00 0.00 94 1026.6
20260906103145 42 272 0.0 0.0 0.00 0.00 0.00 94 1026.7
20260906102618 41 272 0.0 0.0 0.00 0.00 0.00 93 1026.7
20260906102108 41 272 0.0 0.0 0.00 0.00 0.00 93 1026.6
20260906101608 41 272 0.0 1.0 0.00 0.00 0.00 92 1026.6
20260906101105 40 272 0.0 2.0 0.00 0.00 0.00 92 1026.4
20260906100546 40 272 0.0 2.0 0.00 0.00 0.00 91 1026.1
20260906100316 40 272 0.0 2.0 0.00 0.00 0.00 90 1026.0
20260906095545 40 272 0.0 2.0 0.00 0.00 0.00 90 1026.0
20260906095250 40 272 0.0 1.0 0.00 0.00 0.00 89 1025.8
20260906094504 40 272 0.0 1.0 0.00 0.00 0.00 89 1025.8
20260906094004 41 272 0.0 1.0 0.00 0.00 0.00 89 1025.7
20260906093439 41 272 1.0 3.0 0.00 0.00 0.00 89 1025.7
20260906092941 41 272 1.0 3.0 0.00 0.00 0.00 88 1025.6
20260906092439 41 268 0.0 2.0 0.00 0.00 0.00 87 1025.5
20260906091937 42 268 0.0 2.0 0.00 0.00 0.00 87 1025.5
20260906091438 42 266 1.0 2.0 0.00 0.00 0.00 86 1025.3
20260906091210 42 266 0.0 2.0 0.00 0.00 0.00 86 1025.2
20260906090412 42 143 1.0 4.0 0.00 0.00 0.00 85 1025.2
20260906085910 43 230 1.0 4.0 0.00 0.00 0.00 85 1025.1
20260906085338 43 308 0.0 1.0 0.00 0.00 0.00 83 1025.0
20260906084833 43 308 0.0 2.0 0.00 0.00 0.00 83 1024.9
20260906084332 44 308 1.0 2.0 0.00 0.00 0.00 83 1024.8
20260906083804 44 267 1.0 2.0 0.00 0.00 0.00 83 1024.8
20260906083236 45 276 0.0 2.0 0.00 0.00 0.00 82 1024.8
20260906082732 45 276 1.0 2.0 0.00 0.00 0.00 81 1024.7
20260906082231 46 276 1.0 2.0 0.00 0.00 0.00 80 1024.6
20260906081702 46 276 1.0 3.0 0.00 0.00 0.00 80 1024.5
20260906081135 47 270 1.0 2.0 0.00 0.00 0.00 79 1024.7
20260906080619 47 220 1.0 4.0 0.00 0.00 0.00 77 1024.6
20260906080121 47 247 2.0 3.0 0.00 0.00 0.00 76 1024.5
20260906075824 47 232 3.0 8.0 0.00 0.00 0.00 76 1024.5
20260906075051 47 229 4.0 9.0 0.00 0.00 0.00 76 1024.6
20260906074523 47 226 3.0 9.0 0.00 0.00 0.00 77 1024.4
20260906074228 47 276 2.0 4.0 0.00 0.00 0.00 78 1024.3
20260906073428 48 245 3.0 9.0 0.00 0.00 0.00 78 1024.5
20260906072924 48 261 3.0 9.0 0.00 0.00 0.00 78 1024.4
20260906072354 48 225 2.0 5.0 0.00 0.00 0.00 79 1024.2
20260906072119 48 247 3.0 5.0 0.00 0.00 0.00 79 1024.2
20260906071345 48 237 2.0 6.0 0.00 0.00 0.00 79 1024.4
20260906070818 48 243 2.0 3.0 0.00 0.00 0.00 79 1024.3
20260906070258 48 237 2.0 3.0 0.00 0.00 0.00 79 1024.3
20260906065732 49 228 2.0 6.0 0.00 0.00 0.00 79 1024.2
20260906065203 49 235 1.0 6.0 0.00 0.00 0.00 79 1024.3
20260906064635 49 261 1.0 4.0 0.00 0.00 0.00 79 1024.3
20260906064133 50 257 1.0 2.0 0.00 0.00 0.00 77 1024.1
20260906063602 50 257 1.0 3.0 0.00 0.00 0.00 77 1024.0
20260906063037 50 252 1.0 3.0 0.00 0.00 0.00 75 1024.0
20260906062510 50 244 1.0 6.0 0.00 0.00 0.00 75 1024.0
20260906062004 50 223 3.0 6.0 0.00 0.00 0.00 75 1024.1
20260906061439 51 187 3.0 6.0 0.00 0.00 0.00 75 1024.1
20260906060923 51 240 2.0 6.0 0.00 0.00 0.00 75 1024.1
20260906060651 51 250 2.0 5.0 0.00 0.00 0.00 76 1024.0
20260906055921 51 251 3.0 5.0 0.00 0.00 0.00 76 1024.0
20260906055418 51 236 2.0 5.0 0.00 0.00 0.00 76 1024.0
20260906054916 51 260 2.0 8.0 0.00 0.00 0.00 76 1024.0
20260906054350 51 276 3.0 8.0 0.00 0.00 0.00 76 1024.0
20260906053825 51 212 3.0 9.0 0.00 0.00 0.00 77 1024.0
20260906053323 51 251 3.0 9.0 0.00 0.00 0.00 79 1023.9
20260906052810 51 253 3.0 7.0 0.00 0.00 0.00 81 1023.8
20260906052241 51 211 3.0 7.0 0.00 0.00 0.00 82 1023.6
20260906051717 51 269 3.0 6.0 0.00 0.00 0.00 84 1023.6
20260906051206 50 229 3.0 6.0 0.00 0.00 0.00 87 1023.4
20260906050638 50 243 2.0 6.0 0.00 0.00 0.00 91 1023.2
20260906050136 50 258 1.0 2.0 0.00 0.00 0.00 93 1023.1
20260906045607 50 249 0.0 2.0 0.00 0.00 0.00 94 1023.0
20260906045336 50 249 0.0 0.0 0.00 0.00 0.00 94 1023.0
20260906044547 50 249 0.0 0.0 0.00 0.00 0.00 94 1023.1
20260906044047 50 249 0.0 0.0 0.00 0.00 0.00 94 1022.8
20260906043545 50 249 0.0 2.0 0.00 0.00 0.00 94 1022.8
20260906043047 50 249 1.0 2.0 0.00 0.00 0.00 93 1022.7
20260906042750 49 286 0.0 1.0 0.00 0.00 0.00 93 1022.6
20260906042018 49 286 0.0 0.0 0.00 0.00 0.00 93 1022.5
20260906041514 49 286 0.0 0.0 0.00 0.00 0.00 93 1022.4
20260906041015 50 286 0.0 1.0 0.00 0.00 0.00 93 1022.4
20260906040449 50 286 0.0 2.0 0.00 0.00 0.00 93 1022.3
20260906035946 50 286 0.0 2.0 0.00 0.00 0.00 93 1022.4
20260906035448 50 286 0.0 1.0 0.00 0.00 0.00 93 1022.3
20260906034941 50 286 0.0 1.0 0.00 0.00 0.00 93 1022.2
20260906034712 50 286 0.0 0.0 0.00 0.00 0.00 93 1022.2
20260906033940 50 286 0.0 0.0 0.00 0.00 0.00 93 1022.2
20260906033417 50 286 0.0 0.0 0.00 0.00 0.00 93 1022.2
20260906032912 50 286 0.0 1.0 0.00 0.00 0.00 93 1022.1
20260906032349 50 286 0.0 1.0 0.00 0.00 0.00 92 1022.2
20260906031826 50 286 0.0 1.0 0.00 0.00 0.00 92 1022.2
20260906031255 50 286 0.0 1.0 0.00 0.00 0.00 92 1022.1
20260906030752 50 286 0.0 0.0 0.00 0.00 0.00 92 1022.1
20260906030249 50 286 0.0 1.0 0.00 0.00 0.00 92 1021.9
20260906025744 50 286 0.0 1.0 0.00 0.00 0.00 91 1021.9
20260906025216 50 286 0.0 1.0 0.00 0.00 0.00 90 1021.9
20260906024944 50 286 0.0 2.0 0.00 0.00 0.00 90 1022.0
20260906024211 51 286 0.0 1.0 0.00 0.00 0.00 89 1021.8
20260906023933 51 286 1.0 2.0 0.00 0.00 0.00 90 1021.6
20260906023158 51 286 0.0 2.0 0.00 0.00 0.00 90 1021.7
20260906022630 51 141 0.0 0.0 0.00 0.00 0.00 90 1021.8
20260906022351 51 141 0.0 1.0 0.00 0.00 0.00 90 1021.6
20260906021617 51 141 0.0 1.0 0.00 0.00 0.00 91 1021.5
20260906021105 52 141 0.0 0.0 0.00 0.00 0.00 91 1021.5
20260906020604 52 141 0.0 0.0 0.00 0.00 0.00 90 1021.4
20260906020104 52 141 0.0 0.0 0.00 0.00 0.00 90 1021.4
20260906015536 52 141 0.0 0.0 0.00 0.00 0.00 89 1021.3
20260906015033 52 141 0.0 2.0 0.00 0.00 0.00 89 1021.0
20260906014522 52 141 0.0 2.0 0.00 0.00 0.00 88 1021.2
20260906014020 52 101 0.0 0.0 0.00 0.00 0.00 88 1021.2
20260906013506 52 101 0.0 2.0 0.00 0.00 0.00 88 1021.1
20260906013005 52 101 1.0 2.0 0.00 0.00 0.00 88 1021.0
20260906012453 52 177 1.0 2.0 0.00 0.00 0.00 89 1020.9
20260906011952 52 177 1.0 3.0 0.00 0.00 0.00 89 1020.9
20260906011452 52 147 1.0 6.0 0.00 0.00 0.00 89 1021.0
20260906010946 52 172 1.0 6.0 0.00 0.00 0.00 89 1020.9
20260906010715 52 299 0.0 1.0 0.00 0.00 0.00 89 1020.8
20260906005917 52 299 0.0 1.0 0.00 0.00 0.00 88 1020.7
20260906005410 53 299 1.0 2.0 0.00 0.00 0.00 88 1020.7
20260906004907 53 298 1.0 3.0 0.00 0.00 0.00 88 1020.5
20260906004343 53 245 1.0 3.0 0.00 0.00 0.00 88 1020.5
20260906004108 53 285 1.0 5.0 0.00 0.00 0.00 88 1020.4
20260906003311 53 149 1.0 5.0 0.00 0.00 0.00 88 1020.4
20260906002808 53 248 1.0 4.0 0.00 0.00 0.00 88 1020.3
20260906002240 53 245 2.0 4.0 0.00 0.00 0.00 89 1020.2
20260906001711 53 291 2.0 5.0 0.00 0.00 0.00 91 1020.0
20260906001209 53 212 2.0 4.0 0.00 0.00 0.00 91 1020.1
20260906000640 53 187 1.0 2.0 0.00 0.00 0.00 89 1019.7
20260906000403 53 272 0.0 1.0 0.00 0.00 0.00 88 1019.6
20260905235858 53 272 0.0 0.0 0.00 0.00 0.00 87 1019.5
20260905235125 53 272 0.0 0.0 0.00 0.00 0.00 87 1019.5
20260905234615 54 272 0.0 2.0 0.00 0.00 0.00 87 1019.4
20260905234112 54 272 0.0 2.0 0.00 0.00 0.00 87 1019.3
20260905233545 54 272 0.0 1.0 0.00 0.00 0.00 87 1019.3
20260905233039 54 271 0.0 0.0 0.00 0.00 0.00 85 1019.1
20260905232539 54 271 0.0 1.0 0.00 0.00 0.00 85 1019.1
20260905232013 55 272 0.0 2.0 0.00 0.00 0.00 85 1019.1
20260905231443 55 271 1.0 2.0 0.00 0.00 0.00 85 1018.9
20260905230914 55 272 1.0 2.0 0.00 0.00 0.00 85 1018.9
20260905230413 55 305 0.0 2.0 0.00 0.00 0.00 84 1018.9
20260905230119 56 305 0.0 2.0 0.00 0.00 0.00 83 1018.7
20260905225317 56 305 0.0 2.0 0.00 0.00 0.00 83 1018.8
20260905224808 56 305 0.0 2.0 0.00 0.00 0.00 81 1018.6
20260905224801 56 305 0.0 1.0 0.00 0.00 0.00 81 1018.7
20260905223801 56 305 0.0 2.0 0.00 0.00 0.00 82 1018.6
20260905223507 56 305 0.0 1.0 0.00 0.00 0.00 80 1018.6
20260905222711 57 305 1.0 3.0 0.00 0.00 0.00 80 1018.5
20260905222144 57 295 1.0 3.0 0.00 0.00 0.00 80 1018.4
20260905221612 57 289 1.0 2.0 0.00 0.00 0.00 80 1018.4
20260905221049 57 283 1.0 2.0 0.00 0.00 0.00 78 1018.3
20260905221023 58 303 1.0 2.0 0.00 0.00 0.00 79 1018.3
20260905220009 58 303 1.0 2.0 0.00 0.00 0.00 78 1018.2
20260905215511 58 303 2.0 3.0 0.00 0.00 0.00 78 1018.3
20260905215002 58 301 1.0 2.0 0.00 0.00 0.00 77 1018.2